Location: Les Moreaux
(47.2278°N, 1.4966°E)
Time: 15:05:45
(UTC+00:00)

Cosmos 158 Rocket - Pass Details

Date: 19 May 2025
Orbit: 694 x 787 km, 74.0° (Epoch: 17 June)

Event Time Altitude Azimuth Distance (km) Brightness Sun altitude
Rises 20:30:12 0° 188° (S) 3,222 6.9 -9.1°
Reaches altitude 10° 20:32:35 10° 185° (S) 2,312 6.1 -9.4°
Maximum altitude 20:37:45 59° 107° (ESE) 904 4.1 -10.1°
Drops below altitude 10° 20:43:01 10° 29° (NNE) 2,357 6.7 -10.7°
Sets 20:45:27 0° 26° (NNE) 3,291 7.6 -11.0°
